Weather History for Buffalo, WY

Change the Weather History Date:

Monday, July 15, 2013

  Actual Average Record
Temperature  
Mean Temperature 77 °F 71 °F  
Max Temperature 93 °F 85 °F 101 °F (1988)
Min Temperature 61 °F 57 °F 47 °F (2009)
Degree Days  
Heating Degree Days 0 1  
Month to date heating degree days 0 18  
Since 1 June heating degree days 100 181  
Since 1 July heating degree days 0 18  
Cooling Degree Days 12 7  
Month to date cooling degree days 135 83  
Year to date cooling degree days 222 141  
Since 1 June cooling degree days 212 134  
Growing Degree Days 26 (Base 50)    
Moisture  
Dew Point 54 °F    
Average Humidity 56    
Maximum Humidity 90    
Minimum Humidity 21    
Precipitation  
Precipitation T in 0.06 in 0.56 in (2014)
Month to date precipitation T 0.82  
Year to date precipitation 4.08 8.62  
Sea Level Pressure  
Sea Level Pressure 29.95 in    
Wind  
Wind Speed 11 mph (SSE)    
Max Wind Speed 22 mph    
Max Gust Speed 28 mph    
Visibility 10 miles    
Events Rain , Thunderstorm    
T = Trace of Precipitation, MM = Missing Value Source: NWS Daily Summary

Daily Weather History Graph

Daily Weather History Graph

Search for Another Location

Airport:

Trip Planner

Search our weather history database for the weather conditions in past years. The results will help you decide how hot, cold, wet, or windy it might be!

Date:

Astronomy

Jul. 15, 2013 Rise Set
Actual Time 5:36 AM MDT 8:48 PM MDT
Civil Twilight 5:01 AM MDT 9:23 PM MDT
Nautical Twilight 4:16 AM MDT 10:08 PM MDT
Astronomical Twilight 3:20 AM MDT 11:04 PM MDT
Moon 1:19 PM MDT (7/15) No Moon Set
Length of Visible Light 16h 21m
Length of Day
15h 11m
Waxing Crescent, 46% of the Moon is Illuminated
Jul 15
Waxing Crescent
Jul 15
First Quarter
Jul 22
Full
Jul 29
Last Quarter
Aug 6
New

Hourly Weather History & Observations

Time (MDT) Temp. Heat Index Dew Point Humidity Pressure Visibility Wind Dir Wind Speed Gust Speed Precip Events Conditions
12:53 AM 68.0 °F - 57.0 °F 68% 30.02 in 10.0 mi South 12.7 mph - N/A   Clear
1:53 AM 64.0 °F - 57.9 °F 80% 30.02 in 10.0 mi South 13.8 mph - N/A   Clear
2:53 AM 63.0 °F - 57.9 °F 84% 30.01 in 10.0 mi SSE 13.8 mph - N/A   Clear
3:53 AM 62.1 °F - 57.9 °F 86% 30.00 in 10.0 mi SSE 13.8 mph - N/A   Clear
4:53 AM 61.0 °F - 57.9 °F 90% 30.00 in 10.0 mi SSE 12.7 mph - N/A   Clear
5:53 AM 61.0 °F - 57.9 °F 90% 29.98 in 10.0 mi SSE 16.1 mph - N/A   Clear
6:53 AM 64.9 °F - 59.0 °F 81% 29.97 in 10.0 mi SSE 20.7 mph 26.5 mph N/A   Clear
7:53 AM 66.9 °F - 59.0 °F 76% 29.96 in 10.0 mi SSE 19.6 mph - N/A   Unknown
8:53 AM 73.0 °F - 59.0 °F 61% 29.95 in 10.0 mi South 18.4 mph - N/A   Clear
9:53 AM 75.9 °F - 59.0 °F 56% 29.93 in 10.0 mi South 16.1 mph 21.9 mph N/A   Clear
10:53 AM 82.9 °F 82.8 °F 59.0 °F 44% 29.91 in 10.0 mi SSE 15.0 mph 19.6 mph N/A   Clear
11:53 AM 84.9 °F - 52.0 °F 32% 29.90 in 10.0 mi SSE 9.2 mph - N/A   Partly Cloudy
12:01 PM 82.4 °F 81.7 °F 55.4 °F 39% 30.10 in 10.0 mi South 6.9 mph - 0.00 in Rain , Thunderstorm Light Rain
12:23 PM 78.8 °F - 60.8 °F 54% 30.10 in 10.0 mi SE 11.5 mph - 0.00 in   Mostly Cloudy
12:53 PM 86.0 °F 84.9 °F 57.0 °F 37% 29.89 in 10.0 mi SSE 11.5 mph - 0.00 in   Clear
1:35 PM 87.8 °F - 50.0 °F 27% 30.07 in 10.0 mi ESE 12.7 mph - N/A Thunderstorm Clear
1:53 PM 89.1 °F - 52.0 °F 28% 29.87 in 10.0 mi SE 16.1 mph 24.2 mph N/A Thunderstorm Clear
2:21 PM 87.8 °F - 51.8 °F 29% 30.06 in 10.0 mi ESE 12.7 mph - N/A   Clear
2:53 PM 89.1 °F - 50.0 °F 26% 29.85 in 10.0 mi ESE 10.4 mph - N/A   Clear
3:53 PM 90.0 °F - 46.0 °F 22% 29.84 in 10.0 mi Calm Calm - N/A   Clear
4:53 PM 91.0 °F - 46.0 °F 21% 29.83 in 10.0 mi Variable 3.5 mph - N/A   Clear
5:53 PM 89.1 °F - 50.0 °F 26% 29.84 in 10.0 mi Variable 5.8 mph - N/A   Mostly Cloudy
6:53 PM 88.0 °F - 48.0 °F 25% 29.84 in 10.0 mi East 9.2 mph - N/A   Clear
7:53 PM 82.0 °F - 52.0 °F 35% 29.86 in 10.0 mi South 6.9 mph - N/A   Scattered Clouds
8:30 PM 80.6 °F 80.3 °F 53.6 °F 39% 30.06 in 10.0 mi WNW 10.4 mph 18.4 mph N/A Thunderstorm Thunderstorm
8:45 PM 78.8 °F - 51.8 °F 39% 30.06 in 10.0 mi NNE 13.8 mph 24.2 mph 0.00 in Rain , Thunderstorm Light Thunderstorms and Rain
8:53 PM 78.1 °F - 51.1 °F 39% 29.87 in 10.0 mi ENE 10.4 mph 20.7 mph 0.00 in Thunderstorm Thunderstorm
9:43 PM 75.2 °F - 53.6 °F 47% 30.09 in 10.0 mi SE 9.2 mph - N/A   Partly Cloudy
9:53 PM 73.9 °F - 54.0 °F 50% 29.90 in 10.0 mi SE 8.1 mph - N/A   Clear
10:53 PM 70.0 °F - 55.0 °F 59% 29.91 in 10.0 mi South 4.6 mph - N/A   Clear
11:53 PM 69.1 °F - 55.0 °F 61% 29.91 in 10.0 mi SSW 5.8 mph - N/A   Clear